Find OneWeb SL0556

NORAD ID: 55798 Int'l Des: 2023-029 Owner: ONEWEBN Country: UK Constellation: oneweb operational
LEOCIRCULARPOLARONEWEB_TYPE

实时位置

正在加载3D地球...

关于 OneWeb SL0556

正在加载描述...

即将过境

Passes for default location (London). Set your location on the main map for personalized predictions.

高度历史

Loading altitude history...

两行轨道根数

1 55798U 23029C 26124.97853767 -.00000045 00000-0 -14205-3 0 9993
2 55798 87.9139 283.0939 0002657 94.2933 265.8504 13.20772188155445
Epoch: May 4, 2026 • Age: 11 hours

当前状态

高度 1195.8 km
速度 7.25 km/s
星下点 -34.08°S, 95.04°W
发射日期 Mar 9, 2023
运行时间 3.1 years
类型 internet

技术详情

分类 Payload
质量 148.00 kg
干质量 140.00 kg
总质量 148.00 kg
长度 1.30 m
直径 1.00 m
跨度 5.00 m
形状 Trapezoid+2 pan
制造商 ONEWUS
平台类型 ARROW
阶段状态 In Orbit
所有者/国家 ONEWEBN/UK

Most Searched